Theta_e
335 338 339 341 346 352 355 357 361 364 364 357 360 367 365 367 366 368 372 374 373 365 362 359 357 358 365 363 361 360 357 359 358 355 355 356 350 350 354 351 352 351 350 349 350 351 350 350 348 349 351 352 352 351 349 343 339 342 347 351 353 352 350 350 350 350 350 349 350 351 351 352 351 350 350 351 353 352 352 351 351 351 351 350 350 351 351 351 351 351 352 353 351 350 351 350 350
335 338 339 344 347 354 361 360 361 364 362 355 361 370 367 367 365 367 372 372 368 361 360 358 357 360 364 362 356 358 358 356 357 355 354 351 350 353 352 350 353 352 351 351 351 350 350 351 350 351 352 352 351 350 346 340 341 348 350 352 353 351 350 350 351 351 351 350 350 351 350 351 352 351 351 352 352 351 352 351 351 351 351 350 350 351 351 351 351 351 352 352 350 350 351 351 351
337 341 344 348 351 355 363 365 362 358 357 356 361 370 369 369 367 368 369 366 361 356 359 358 359 360 359 361 357 359 356 352 352 352 351 352 353 353 351 351 352 351 351 351 351 350 350 351 351 352 352 351 350 348 342 341 346 350 351 351 351 349 349 349 350 352 351 350 349 349 349 350 352 352 352 351 351 351 351 352 351 350 350 351 350 350 351 352 351 351 352 352 350 350 350 351 351
340 344 348 351 358 362 366 370 366 358 355 356 359 367 367 367 367 366 368 367 356 353 358 358 359 357 357 359 355 356 355 352 352 352 352 352 354 354 353 353 353 352 352 352 351 350 350 350 350 351 351 349 349 345 341 344 349 350 351 351 350 349 348 348 349 351 351 350 348 348 349 351 352 352 352 352 351 351 351 351 351 351 350 350 349 349 351 352 351 351 351 352 351 351 351 351 350
344 347 349 354 366 370 367 369 368 360 358 361 361 367 367 366 366 366 370 367 357 358 360 358 358 356 355 356 352 355 355 352 352 352 352 353 354 354 354 354 353 354 354 353 351 351 351 350 350 350 348 348 348 343 341 347 350 350 351 350 350 348 348 349 350 350 350 349 348 348 350 352 352 352 352 352 352 351 350 350 349 350 351 351 350 350 351 351 351 350 351 352 351 351 350 349 348
345 349 351 355 366 365 365 364 362 362 366 372 371 371 368 366 369 369 370 365 363 362 361 358 355 354 355 353 351 354 354 353 352 351 353 354 353 353 354 354 353 353 354 354 351 350 349 349 348 347 346 346 344 341 344 349 350 350 351 351 350 349 349 351 350 350 350 349 349 349 350 351 351 352 352 352 352 351 349 349 348 350 350 350 351 350 350 350 350 350 350 351 351 350 349 348 347
347 356 359 362 366 363 366 362 359 366 369 371 372 372 369 367 370 368 366 366 366 359 356 357 352 355 357 354 354 353 351 353 351 350 353 353 353 353 353 353 352 353 354 352 350 349 348 347 347 345 344 342 341 344 347 349 350 350 351 351 351 350 350 350 351 351 350 350 351 350 349 349 350 351 352 352 352 351 350 348 348 349 350 349 350 350 349 350 350 349 350 350 350 349 349 348 347
349 360 364 367 370 367 367 363 364 371 368 365 367 367 368 369 368 366 366 367 364 358 356 355 352 358 357 354 358 355 351 353 351 351 352 352 353 353 353 352 352 354 353 350 348 348 348 348 347 345 341 340 343 346 347 348 350 351 351 351 351 351 350 350 351 352 351 351 351 349 349 349 350 351 351 352 352 352 350 347 346 348 349 349 348 349 349 350 350 350 349 349 349 349 349 349 348
352 359 365 366 368 367 364 364 367 371 369 365 364 364 367 367 366 368 368 366 362 358 358 354 353 359 358 355 357 354 350 352 351 351 351 352 352 352 353 352 353 353 350 348 348 349 349 349 348 346 343 344 347 347 347 349 351 351 352 351 351 351 350 350 352 352 352 351 350 349 349 350 350 351 351 352 352 352 351 348 346 346 347 349 348 348 349 351 350 350 349 349 348 347 348 349 349
359 362 367 367 366 362 359 364 367 369 367 364 364 364 363 363 366 370 367 367 363 360 357 354 354 358 357 357 356 352 351 352 352 352 351 351 352 353 353 352 353 351 349 348 349 350 350 350 350 349 347 348 349 348 349 350 351 351 351 351 352 352 351 351 352 352 351 351 350 350 350 351 351 351 351 352 352 352 351 349 347 346 346 348 348 346 348 350 349 349 349 347 344 344 347 349 349
367 363 364 366 363 358 357 362 365 367 365 363 364 361 360 361 365 368 366 369 364 359 355 354 357 356 356 357 356 352 351 351 352 352 351 351 352 353 353 353 352 348 347 349 350 351 350 350 351 349 347 347 347 348 348 349 351 351 351 352 352 353 352 352 352 351 350 349 350 350 351 351 351 351 351 352 352 352 352 350 349 348 347 347 348 347 347 348 348 348 347 343 340 343 347 349 349
372 367 368 366 361 361 361 362 364 367 366 364 365 362 362 362 363 367 367 368 362 358 356 357 357 355 356 357 355 352 351 351 351 351 351 352 352 352 353 353 350 348 348 349 351 351 351 351 350 348 346 346 348 348 348 349 351 352 352 352 352 352 353 352 352 351 349 348 349 349 350 351 351 351 351 351 352 352 352 351 350 349 348 347 348 348 347 348 348 346 343 340 341 345 348 349 350
374 370 370 366 365 368 365 364 365 368 369 367 365 363 363 362 363 369 371 369 367 361 357 357 354 354 357 356 354 351 351 352 352 352 351 352 352 352 353 353 353 353 352 350 351 352 351 351 350 348 348 349 350 349 349 349 351 352 352 351 352 353 352 351 351 350 348 347 348 349 350 351 351 351 351 351 352 353 352 352 352 351 350 349 349 348 348 348 347 344 341 340 342 346 347 348 347
371 371 371 368 370 371 366 366 365 366 368 366 364 362 361 363 361 366 371 372 374 367 354 353 352 355 357 355 355 351 351 353 352 352 351 353 353 352 352 354 356 356 354 352 351 352 352 351 351 349 349 350 350 350 350 351 352 352 351 351 352 352 352 351 350 349 348 347 348 349 350 351 351 351 352 352 352 352 352 353 353 351 351 351 350 349 347 345 344 343 342 341 341 345 347 346 345
368 368 372 372 369 369 366 367 366 365 367 366 364 362 363 363 361 366 372 372 373 364 353 351 351 356 356 356 356 351 351 353 352 352 351 353 353 352 353 355 355 355 354 352 351 352 353 353 352 349 347 349 349 350 351 352 352 352 351 351 351 352 351 350 350 350 349 349 350 351 351 352 351 350 352 352 351 352 351 352 353 352 351 351 350 348 346 343 343 342 340 338 340 345 346 347 347
369 367 373 373 365 365 366 369 368 367 369 367 364 364 366 365 361 366 371 371 367 359 357 354 350 354 354 353 353 350 352 352 351 352 351 353 353 353 353 354 355 354 353 351 352 354 354 353 351 347 346 348 349 350 351 352 352 352 352 352 352 351 350 350 351 351 351 352 352 352 352 352 351 350 351 352 352 351 351 351 351 351 350 350 349 346 344 342 341 339 337 338 342 345 346 347 347
368 370 373 369 365 367 369 372 371 370 370 367 366 366 369 367 363 363 367 370 368 363 363 356 350 351 351 351 350 350 352 352 352 352 352 353 353 354 353 354 354 354 353 353 354 354 354 353 350 348 349 349 349 349 350 352 352 351 352 353 352 351 351 351 352 352 352 352 352 351 351 351 351 350 351 351 351 351 351 351 350 350 349 348 346 344 342 341 340 339 338 338 342 345 345 346 347
369 376 371 367 371 372 369 371 372 371 369 367 367 367 369 368 367 366 368 371 368 367 364 355 351 349 349 351 349 351 351 351 351 351 353 353 353 354 353 353 354 354 354 353 353 352 353 354 352 352 353 351 349 349 350 351 351 350 351 352 352 352 352 352 352 352 351 351 351 350 350 351 351 350 349 350 350 350 351 350 349 348 347 345 344 343 343 342 340 340 341 341 343 345 345 346 347
371 376 370 369 372 369 366 367 369 369 368 368 367 367 369 369 369 369 370 372 367 367 362 354 352 350 349 350 350 351 350 350 351 351 353 353 353 353 354 354 353 354 354 353 353 352 353 354 355 355 354 352 350 348 350 351 350 349 350 351 351 351 351 352 352 351 350 350 350 349 350 351 352 351 349 349 349 350 349 348 348 347 344 343 343 343 343 342 340 340 342 344 346 347 347 348 349
371 372 373 371 364 363 365 365 368 368 367 368 367 368 369 368 367 368 371 372 369 368 362 354 352 351 350 349 349 350 350 350 351 351 352 352 353 354 354 354 354 355 355 354 354 353 353 355 356 356 354 352 350 349 351 352 350 348 348 349 351 351 350 351 351 349 348 349 350 349 350 351 353 352 350 348 348 348 346 346 346 344 342 341 341 342 342 341 341 341 342 344 345 346 347 348 349
369 370 376 371 361 364 364 363 366 366 366 368 368 369 370 368 365 366 371 371 372 372 362 353 351 351 350 348 349 349 349 350 351 352 353 353 354 355 355 355 355 355 355 355 355 355 354 355 356 356 354 351 349 348 351 352 350 347 346 349 351 351 350 351 350 349 348 349 349 349 349 351 351 350 348 345 345 345 343 343 343 342 341 341 341 342 345 346 346 346 346 346 346 346 347 347 348
363 365 367 364 363 365 363 363 365 366 365 367 369 370 369 369 367 366 370 370 372 371 359 350 350 350 348 348 349 349 350 349 352 352 353 354 353 354 355 355 355 355 355 356 356 355 355 355 355 354 352 350 347 346 349 351 349 346 346 348 349 351 351 350 349 349 348 349 349 349 350 350 349 347 346 343 343 344 343 344 343 344 345 345 345 346 348 349 349 349 349 348 348 348 347 347 347
367 370 359 356 361 362 362 362 363 365 366 368 369 368 367 370 370 368 369 371 371 368 360 349 348 349 348 348 348 349 350 350 351 352 352 353 353 354 355 355 355 354 354 354 354 355 356 354 351 351 350 349 347 345 348 352 350 346 346 348 349 351 351 349 347 348 349 351 352 351 350 351 350 348 346 344 345 347 347 347 347 347 349 349 348 348 350 350 350 350 350 349 349 349 348 347 347
369 373 358 355 357 357 362 362 362 366 368 369 366 366 371 373 370 367 370 371 369 368 362 350 348 349 348 348 348 348 349 349 350 351 351 352 352 353 354 354 354 354 354 353 353 355 356 352 350 351 349 349 348 346 348 353 352 347 346 348 350 351 351 348 345 347 349 351 353 353 352 352 352 349 347 348 349 350 351 349 348 348 349 350 349 350 351 351 351 351 350 351 350 348 346 344 344
363 365 357 355 352 354 360 361 362 365 367 365 363 366 371 372 368 367 371 368 366 366 358 350 349 348 348 348 348 348 349 349 348 349 349 350 351 352 352 352 352 353 352 352 352 353 356 353 351 351 351 350 350 349 349 352 352 348 346 348 350 350 350 348 345 347 350 352 353 353 353 353 352 350 349 350 349 350 351 350 349 348 348 348 349 350 350 350 350 350 350 351 350 346 343 342 342
361 360 357 354 351 356 360 362 363 364 364 362 362 367 368 367 367 370 369 363 363 362 355 352 349 348 348 348 348 348 348 348 348 347 347 347 350 350 351 351 351 351 351 352 352 353 356 355 353 353 353 352 351 351 350 351 351 348 348 348 349 349 349 347 345 347 350 352 354 354 354 354 352 351 351 351 350 350 351 350 349 348 347 347 348 349 349 350 350 350 349 349 349 347 345 344 342
358 357 357 352 355 361 361 363 363 362 364 363 365 368 368 365 368 372 367 360 360 357 354 352 349 350 349 348 348 348 348 347 347 346 345 346 347 348 349 349 349 349 350 351 352 353 355 356 355 354 354 352 351 350 349 349 348 348 349 350 349 349 348 347 346 347 349 351 353 354 354 354 353 352 351 350 349 349 349 349 349 348 348 348 349 350 350 352 352 351 350 349 349 348 347 346 344
355 354 354 351 357 362 362 363 363 362 365 366 368 370 369 365 368 372 366 360 358 354 354 353 350 350 348 348 349 349 347 347 347 345 344 345 344 346 347 348 348 349 351 352 353 353 355 355 354 353 353 351 349 349 349 349 349 349 350 350 350 350 349 348 349 350 350 350 351 352 353 354 353 352 350 348 348 348 348 349 348 349 349 349 350 350 352 354 354 352 351 350 350 350 348 347 346
351 351 354 356 361 362 362 363 362 364 367 366 367 368 370 370 368 369 366 362 359 358 356 353 352 349 349 349 349 350 347 346 346 343 343 343 344 346 347 348 347 347 351 352 353 354 354 355 354 353 352 350 349 349 349 349 350 350 349 349 349 349 350 350 351 352 353 353 352 351 351 351 352 351 350 349 348 348 348 349 349 350 351 351 351 351 353 354 354 354 352 351 351 350 348 348 347
343 349 354 358 363 366 364 363 363 366 367 367 365 363 366 372 369 366 366 364 361 360 357 351 352 349 349 349 347 350 347 345 345 343 343 342 344 346 345 346 345 347 351 352 353 354 354 355 354 353 352 351 351 350 350 350 350 350 348 348 348 349 349 351 353 354 355 355 353 352 351 350 351 351 350 350 349 349 349 350 351 352 352 352 353 352 353 353 353 353 353 352 351 349 349 348 348
338 346 347 352 358 362 364 361 364 368 365 364 366 362 365 374 369 363 363 362 361 361 357 351 352 348 348 348 348 349 346 345 344 342 342 343 343 344 345 344 345 348 351 352 352 353 354 354 353 353 352 352 352 351 351 351 350 351 349 349 349 348 348 351 353 354 355 355 354 353 353 353 353 352 352 352 351 351 351 352 353 353 353 352 353 352 352 352 351 351 352 351 351 350 349 349 349
337 339 336 348 358 358 365 360 363 372 366 363 366 364 367 372 367 363 364 362 362 364 359 350 351 349 347 347 347 348 346 344 343 342 342 343 343 342 344 344 345 349 349 350 351 353 354 353 353 353 353 352 352 351 351 351 352 352 351 350 349 349 350 352 354 355 356 355 354 353 353 354 354 353 353 353 353 353 353 354 354 353 353 351 352 353 353 351 351 352 352 350 351 350 349 350 350
336 338 330 343 356 354 362 361 359 366 366 364 366 366 371 372 366 362 363 362 363 366 367 358 352 348 346 347 347 346 346 345 343 343 342 343 343 342 343 344 346 347 347 349 350 352 353 352 353 353 353 353 352 352 351 352 352 352 352 351 350 351 353 354 355 356 356 355 354 353 353 354 354 353 352 353 354 353 354 354 354 354 353 352 352 353 353 351 352 354 353 351 351 350 350 351 350
329 338 330 340 358 355 355 361 360 359 362 367 366 367 370 367 365 362 360 362 363 365 369 366 361 356 348 345 348 346 346 347 344 342 342 343 343 342 343 345 347 345 346 349 350 351 352 352 352 353 354 353 353 353 352 352 353 352 353 352 351 352 353 354 354 355 355 355 354 353 353 353 355 354 351 352 353 353 353 354 354 353 353 353 352 352 352 352 352 355 355 353 353 352 352 351 350
324 330 326 331 350 353 352 359 361 360 362 366 364 366 369 364 365 365 361 363 364 364 365 366 368 371 362 347 346 347 346 347 344 342 342 343 343 342 343 345 346 345 346 349 350 351 351 352 352 352 354 353 353 353 352 352 352 352 353 352 352 352 352 353 354 354 355 354 352 352 353 353 354 354 352 352 352 353 353 354 354 352 352 353 352 352 352 352 352 353 354 354 354 354 352 351 350
327 330 328 327 335 345 356 361 362 361 362 365 364 364 368 366 366 366 362 364 367 365 365 368 370 373 369 356 346 347 348 346 344 343 342 343 343 343 344 345 345 344 347 349 349 350 350 351 351 352 353 353 353 352 352 352 351 352 352 352 352 352 352 352 353 354 354 354 351 350 351 351 353 353 353 353 353 353 353 354 354 350 352 353 352 352 353 353 355 354 353 353 354 353 352 352 351
330 327 328 325 326 339 356 362 360 359 357 359 364 366 367 366 365 367 363 363 367 365 366 369 369 369 369 365 353 346 349 347 343 343 344 344 344 343 343 344 344 345 347 349 348 348 350 351 351 353 354 354 354 353 353 352 352 352 352 353 352 352 352 352 353 354 354 354 351 350 349 349 353 355 354 354 354 355 354 354 353 351 353 353 351 352 353 355 357 355 353 353 354 352 351 352 351
328 326 325 321 326 342 355 361 358 354 354 356 363 366 365 364 364 367 365 363 364 365 364 364 366 368 368 366 362 350 346 347 344 343 343 344 344 344 344 343 345 347 347 348 347 348 350 350 351 353 354 354 354 355 355 352 352 352 352 354 353 353 352 351 354 354 355 355 351 349 349 348 352 354 354 355 355 356 355 354 353 352 353 354 352 353 354 355 356 355 354 355 354 353 353 352 351
326 327 323 320 333 349 350 355 356 350 353 356 363 365 363 363 362 363 365 363 362 362 363 361 361 365 365 366 367 359 347 347 346 343 343 344 344 344 344 344 346 347 348 347 347 348 350 349 352 353 354 354 355 355 355 353 352 352 353 354 354 353 352 352 353 354 356 355 352 351 349 347 349 350 353 356 356 355 355 355 355 354 354 355 354 354 354 355 356 356 356 355 354 354 354 353 351
326 326 320 320 336 344 338 347 354 351 353 357 361 361 361 362 360 362 362 361 362 363 365 365 362 362 363 362 367 367 354 347 347 344 343 344 345 345 345 345 346 346 348 347 346 349 350 350 352 354 352 353 354 355 355 353 352 352 353 354 354 353 352 352 353 356 357 355 355 356 353 349 349 350 352 356 356 355 355 355 355 355 355 355 355 353 354 355 356 357 355 355 354 354 354 353 352
324 326 322 322 332 341 341 348 350 348 353 358 358 353 356 362 362 364 363 361 363 362 363 366 366 366 364 360 364 368 360 350 347 346 344 344 344 344 345 345 346 346 348 348 346 349 350 349 352 353 352 353 354 354 354 353 353 353 353 353 353 354 353 352 353 356 357 355 357 359 357 353 352 351 351 352 354 355 355 355 354 355 354 354 354 352 353 355 357 357 355 354 353 353 353 353 353
318 325 328 328 332 342 349 350 345 341 343 352 352 344 348 360 362 366 364 362 364 361 361 363 366 368 366 363 362 363 362 354 347 347 344 344 344 344 345 346 346 346 347 349 347 349 351 350 352 352 352 353 353 353 354 353 353 353 353 353 353 354 353 352 354 356 357 356 357 359 357 355 355 354 351 352 355 356 357 356 354 355 354 353 353 353 355 355 356 356 354 353 354 354 355 354 355
316 324 331 333 335 340 343 343 337 332 337 349 348 343 345 353 357 364 362 361 364 362 362 361 363 365 364 366 363 359 361 357 349 348 345 344 345 344 346 346 347 347 346 348 348 349 350 351 353 352 352 353 352 352 354 352 353 354 353 352 353 353 353 352 354 356 357 357 357 358 357 355 357 357 354 356 357 357 358 358 356 356 355 354 354 355 356 355 355 356 355 355 356 355 356 355 355
318 327 332 335 335 335 338 335 329 330 338 344 343 343 344 346 351 360 361 362 365 363 363 364 363 363 361 365 365 358 359 359 352 350 347 345 345 344 347 346 347 348 347 348 349 350 351 350 353 353 352 353 352 353 354 353 353 354 352 353 353 353 353 353 353 354 356 356 356 357 357 355 357 357 356 357 357 356 358 359 357 357 357 356 356 356 355 354 355 356 356 356 356 355 356 354 354
324 330 333 334 335 336 336 331 325 326 330 332 336 336 340 342 347 357 362 361 366 365 364 365 363 361 360 363 366 361 360 361 355 352 349 346 345 345 346 347 347 348 348 348 349 351 351 350 352 354 352 354 353 353 354 353 353 354 355 356 355 353 354 355 353 353 354 356 356 356 357 357 357 357 357 357 358 357 357 358 358 358 358 357 358 357 355 355 356 357 356 356 356 356 356 355 354
331 331 333 331 332 334 336 333 326 323 324 325 330 329 335 340 342 350 357 356 362 366 364 364 363 361 360 361 364 362 360 361 357 353 349 345 346 346 346 346 347 347 348 349 349 352 352 350 352 354 353 354 353 353 355 353 353 356 358 358 356 356 356 355 354 354 353 354 356 356 357 356 357 357 357 358 358 356 356 358 358 358 358 357 358 357 355 356 357 357 355 355 357 357 357 356 355
332 331 331 328 329 330 331 334 327 322 323 325 325 324 332 338 341 347 353 354 360 364 363 365 363 361 361 360 361 359 358 360 358 355 351 347 346 346 347 346 346 348 348 348 350 352 353 351 353 354 354 354 353 353 356 354 353 356 358 358 356 356 356 354 354 354 353 354 355 356 356 355 356 358 357 359 360 356 355 358 358 359 359 358 356 356 356 357 357 357 356 356 357 357 357 357 357
330 331 327 321 326 329 323 324 325 323 324 326 322 322 330 334 340 348 355 356 358 359 361 364 362 360 360 359 358 357 358 359 359 358 353 350 349 346 347 346 346 348 347 348 351 353 354 353 354 354 354 356 354 353 356 356 354 356 356 357 356 355 355 353 354 354 354 354 354 356 357 356 356 358 358 359 361 358 358 358 359 360 359 357 357 356 357 359 358 357 357 356 356 356 358 357 356
330 328 322 317 322 327 321 319 322 322 324 325 320 324 334 336 342 349 355 355 356 356 357 360 360 358 357 357 357 358 359 361 362 361 358 357 353 348 348 348 346 348 347 348 351 354 355 354 354 355 354 356 356 354 356 357 355 355 355 356 355 354 354 353 353 354 354 354 355 356 357 356 357 357 358 359 360 360 360 359 360 359 357 357 357 358 358 357 357 358 358 358 356 355 357 356 355
329 323 319 318 321 325 323 321 322 321 322 323 318 325 334 338 343 350 354 353 354 355 354 356 357 357 355 354 355 358 360 362 362 360 360 360 356 350 350 349 348 349 347 347 351 354 356 354 355 356 355 357 357 355 356 358 358 356 355 355 354 353 353 352 353 353 353 354 355 356 356 356 357 357 357 358 359 360 360 359 359 358 356 357 357 357 358 357 355 357 359 360 358 356 358 358 356
330 328 326 321 319 322 323 321 321 321 320 319 319 329 336 339 347 352 351 353 354 353 353 355 355 355 354 353 355 359 361 361 361 359 359 359 354 352 353 351 349 351 348 347 351 354 356 355 356 357 356 357 358 355 356 359 359 357 355 354 355 354 353 352 353 354 354 354 355 356 356 356 357 357 358 357 357 359 358 358 359 358 357 358 358 358 358 358 356 356 357 359 359 358 359 360 358
329 331 326 320 322 325 322 319 318 318 318 318 324 336 343 348 354 356 350 350 353 351 351 354 354 354 355 355 357 360 361 360 359 359 358 357 354 352 354 353 351 351 350 349 350 354 357 357 356 357 357 358 359 357 357 358 359 358 356 354 354 355 354 355 355 354 355 355 355 357 356 355 355 355 358 357 356 358 358 356 358 360 359 359 360 359 359 359 357 356 356 357 358 358 359 360 359
328 326 320 325 330 327 319 317 316 316 317 322 332 340 342 346 353 356 354 355 356 353 351 352 354 354 355 357 359 360 361 359 359 362 362 360 358 354 354 354 351 351 352 353 352 354 357 357 357 358 357 358 359 358 358 359 359 357 356 355 355 356 355 356 356 356 356 356 355 356 356 356 355 354 356 357 356 358 357 356 357 360 361 360 359 358 358 359 356 354 355 355 356 358 359 360 359
326 320 322 329 330 326 324 319 318 317 316 323 335 338 337 342 349 356 358 359 360 360 357 356 356 357 359 361 361 360 360 360 362 366 365 361 358 356 355 354 353 353 353 354 354 355 358 358 358 359 358 358 359 359 359 359 359 357 356 355 356 356 356 356 357 356 356 357 356 355 355 356 356 355 355 356 356 357 358 357 357 359 361 360 359 358 358 360 357 353 353 354 355 358 360 360 360
327 323 325 328 321 320 323 319 318 318 317 326 337 336 337 340 344 352 358 358 359 359 360 360 357 358 360 361 361 360 359 360 362 364 364 361 357 357 357 355 353 354 355 354 353 356 359 359 360 360 359 359 359 360 361 361 360 357 356 355 356 357 356 356 357 356 355 355 355 355 355 355 356 356 354 354 355 356 358 358 358 359 360 359 360 359 358 360 359 356 356 357 357 358 359 359 361
329 325 325 326 321 320 321 319 318 318 319 331 341 341 345 349 349 352 356 356 355 356 358 359 357 357 358 358 358 358 357 359 359 360 361 358 353 353 355 356 355 355 356 355 353 353 357 360 362 362 362 361 360 360 361 361 361 359 356 355 356 357 357 356 357 356 355 354 353 353 353 354 354 355 355 354 355 355 356 358 359 359 359 358 359 360 359 359 359 360 359 359 359 357 356 357 358
325 321 319 320 321 321 322 319 317 317 319 331 345 348 349 354 357 356 355 354 353 355 356 355 355 355 355 356 356 355 357 358 357 357 358 357 353 352 355 358 357 356 357 356 354 354 356 358 361 362 363 363 361 361 361 362 362 360 358 355 355 356 357 357 356 356 355 354 352 352 352 352 353 353 354 355 355 355 355 357 358 358 358 358 357 358 359 359 359 360 359 358 359 358 355 355 354
323 321 319 319 320 319 318 320 320 315 316 326 341 346 344 348 356 355 354 353 353 355 355 353 353 354 353 354 354 354 355 354 354 354 356 358 357 356 359 358 356 355 355 355 355 354 355 355 355 357 359 360 360 362 362 362 362 361 360 357 355 355 355 357 356 355 354 353 351 352 351 351 352 352 352 353 354 356 356 356 357 357 357 357 357 356 357 358 358 358 357 356 358 358 357 356 355
Wind_Speed
11 12 11 10 8 4 4 2 1 1 1 1 1 1 1 1 2 1 3 4 3 5 5 4 7 5 6 7 10 10 10 3 5 5 3 8 26 28 21 24 24 22 24 23 22 20 20 21 20 19 18 18 17 16 15 14 14 14 14 13 14 15 14 15 15 15 17 17 17 17 16 15 15 15 16 15 15 16 17 17 17 18 18 18 19 20 19 18 18 19 19 19 20 20 20 21 21
13 11 9 8 6 3 1 1 0 1 1 1 1 1 1 0 2 2 3 2 2 4 5 7 6 7 8 9 10 13 13 6 10 8 7 23 30 23 25 27 24 24 25 24 23 22 21 22 20 20 18 18 17 15 15 14 14 14 14 13 14 15 14 15 15 16 16 16 16 16 16 15 14 15 15 15 16 17 17 17 18 18 17 17 18 19 19 19 19 20 19 19 20 21 21 21 21
12 8 7 7 6 5 1 1 0 0 1 1 1 1 2 2 4 3 4 5 6 8 4 8 10 8 11 13 12 13 7 6 16 12 10 26 21 21 30 26 26 26 25 24 23 22 22 22 21 20 18 18 17 15 15 15 14 14 13 13 14 15 15 15 15 16 16 16 16 16 17 15 14 14 15 16 17 17 17 17 18 18 18 17 18 19 19 19 19 20 20 20 21 21 21 21 21
11 8 7 5 3 2 0 1 1 1 1 1 0 1 2 4 6 4 6 7 8 10 6 10 8 6 14 17 10 12 9 7 15 14 11 19 21 27 31 26 27 25 23 23 22 22 22 22 21 21 19 18 16 15 15 15 14 13 13 14 14 14 15 15 16 17 16 16 16 16 17 15 14 14 15 16 18 17 17 17 17 18 18 17 18 19 19 19 19 20 19 19 21 21 22 21 22
11 11 10 6 1 1 0 0 0 1 1 1 0 2 3 5 6 5 5 3 5 7 7 8 7 8 12 12 7 8 10 9 14 16 16 21 28 32 30 29 27 24 23 21 22 23 22 22 22 21 20 18 16 15 15 14 13 13 13 14 14 14 16 16 16 16 16 16 16 17 17 15 15 15 16 17 19 19 17 17 18 18 18 18 18 19 19 20 20 20 20 20 21 22 23 23 23
9 9 8 4 1 2 1 1 1 2 1 2 1 2 4 4 7 8 3 4 3 5 10 9 11 12 10 9 8 8 11 13 14 17 23 27 31 32 30 29 26 25 23 22 24 23 23 23 22 21 20 18 16 15 15 14 13 13 14 15 15 15 16 16 16 16 16 16 17 18 17 16 15 15 16 17 19 20 18 18 18 18 19 18 19 19 20 20 21 21 20 20 22 23 24 24 24
6 4 3 1 3 0 1 1 2 1 1 0 1 1 2 3 3 6 7 4 1 7 12 11 13 13 10 8 9 13 17 18 18 21 28 32 32 32 30 28 27 26 23 24 25 24 24 22 22 21 19 18 17 16 14 13 13 14 15 15 15 16 16 16 17 16 16 16 17 18 17 17 16 16 16 17 19 22 20 18 18 18 19 19 20 20 20 21 21 22 21 21 22 22 22 22 22
7 1 1 2 1 1 1 3 2 1 1 1 3 4 2 2 4 3 5 3 2 8 12 12 12 13 12 9 8 15 22 22 25 31 34 34 33 32 29 28 28 26 24 27 27 25 23 22 21 20 19 18 16 15 14 14 13 15 15 15 15 15 15 16 17 16 16 16 17 18 17 18 17 17 16 17 20 23 22 19 18 19 20 21 20 20 21 21 21 22 22 22 21 20 20 20 20
3 1 0 1 0 1 2 3 1 1 1 3 3 2 1 3 4 3 1 0 5 9 13 12 10 14 13 12 10 12 21 29 33 36 35 33 33 32 29 29 29 27 27 28 27 26 23 22 20 19 19 17 16 15 14 14 14 15 15 15 15 15 15 16 16 16 16 16 17 18 18 18 18 17 17 17 19 23 23 20 18 19 21 22 21 21 21 21 21 21 21 21 20 19 20 19 18
2 3 0 1 1 1 2 1 1 0 2 4 3 3 3 4 3 3 1 2 6 11 15 13 12 17 15 12 10 11 24 34 36 35 33 32 34 33 28 28 29 29 30 29 28 25 23 21 20 19 18 17 16 15 15 15 14 15 15 15 15 15 15 16 16 16 16 16 16 17 18 18 18 18 18 17 19 22 24 22 20 19 21 21 22 22 22 22 21 21 20 20 20 20 20 19 18
2 2 1 1 2 1 2 0 1 1 3 4 4 4 3 4 5 2 0 2 7 14 16 13 13 17 16 11 8 18 32 34 33 33 32 31 32 31 28 28 29 32 32 29 27 25 23 21 19 18 17 17 16 15 15 14 14 15 15 15 16 15 15 16 16 16 16 16 16 17 18 18 18 18 18 18 18 21 24 24 22 20 20 21 23 23 23 23 21 21 21 21 21 21 20 20 19
2 0 1 1 2 1 2 1 2 2 3 4 5 2 1 2 5 1 2 1 8 15 12 9 11 13 15 10 7 21 32 29 31 33 32 31 30 29 29 29 29 31 31 29 26 24 23 21 19 18 17 16 15 15 14 13 14 15 15 15 16 15 15 15 16 16 17 16 16 17 18 18 18 19 19 18 18 20 23 24 23 22 21 21 22 23 23 21 20 21 22 22 21 21 21 21 20
2 1 2 1 2 1 1 1 2 4 3 2 4 3 2 1 3 3 1 3 7 11 12 11 12 13 13 10 9 17 23 25 28 32 34 31 29 29 29 28 27 28 28 28 27 24 23 22 20 18 17 16 15 14 13 13 14 15 15 15 15 15 15 15 16 17 18 17 17 17 18 18 18 19 18 18 18 19 21 23 23 23 21 21 21 21 21 20 20 21 22 22 21 21 21 21 21
2 1 2 1 2 1 1 2 2 3 2 2 3 4 3 2 2 4 1 6 5 6 14 14 13 13 12 11 10 10 18 27 28 32 33 29 29 29 28 27 26 26 26 27 27 25 23 21 20 19 17 16 16 15 14 14 14 15 15 15 15 15 15 15 16 17 18 18 18 17 18 18 18 18 18 18 19 19 20 21 21 22 22 21 20 19 19 20 20 20 21 21 21 21 21 22 21
2 1 1 0 2 1 1 1 2 2 2 4 4 5 4 1 2 2 2 5 1 3 12 15 11 9 11 11 10 11 22 31 30 33 31 28 29 28 28 27 25 24 24 26 26 24 21 19 19 19 18 17 16 16 16 15 15 15 15 16 15 15 16 16 17 17 17 18 17 17 17 18 19 18 17 18 19 19 19 19 19 20 21 20 20 19 19 19 20 20 20 20 21 22 22 21 20
2 1 0 1 1 1 1 2 2 3 2 4 5 5 5 1 2 1 2 2 0 1 7 10 9 9 12 10 14 23 31 32 29 31 30 29 29 27 28 26 24 23 23 24 23 22 20 19 19 18 18 16 15 17 18 16 15 15 15 15 16 16 16 16 16 16 17 17 17 17 17 18 18 17 17 17 18 18 18 18 18 18 19 19 19 19 19 20 20 20 20 21 22 23 22 20 18
1 1 1 2 1 1 1 3 2 4 3 4 5 4 5 3 2 1 1 1 1 3 5 6 10 13 14 15 24 32 34 31 30 29 29 28 27 26 25 24 24 22 21 22 21 22 20 19 19 18 17 16 16 18 20 17 15 16 16 15 16 16 16 16 16 16 17 16 17 16 17 18 17 17 16 17 17 18 17 17 18 17 17 18 18 19 20 20 21 21 21 22 23 23 22 20 17
2 2 1 2 2 1 2 4 2 4 6 5 5 4 4 5 3 1 2 0 1 4 5 7 13 15 18 25 32 34 33 30 29 29 25 23 23 22 21 22 23 22 22 22 22 22 21 20 19 18 16 16 16 18 20 18 16 17 17 16 16 16 16 16 16 16 16 16 17 17 18 18 17 16 16 17 18 17 17 17 17 17 17 18 18 20 20 20 20 21 21 22 22 22 21 19 17
2 1 0 2 3 1 2 5 5 5 7 7 6 4 4 6 3 1 1 3 4 4 6 10 15 17 20 26 31 34 33 29 28 28 24 21 20 20 19 20 21 21 21 22 23 22 21 21 19 18 17 16 17 18 20 18 17 17 18 18 18 17 16 17 16 15 16 15 16 17 18 17 17 16 15 16 17 17 17 17 17 18 19 19 19 19 19 19 20 21 21 20 20 19 18 17 15
2 2 1 3 5 1 3 7 7 6 9 9 6 3 4 5 2 1 3 5 4 4 6 12 18 19 19 20 26 32 31 28 28 26 23 21 20 20 19 19 20 20 20 21 23 21 21 21 19 19 18 18 17 18 20 19 18 17 18 19 18 18 17 16 16 16 16 15 15 16 17 17 17 16 15 16 17 18 17 17 18 19 20 20 20 20 20 19 20 20 20 20 19 17 16 14 14
3 3 3 4 5 3 6 8 7 8 10 9 6 4 5 4 2 2 5 5 2 1 4 13 20 20 20 18 21 25 25 27 26 23 22 21 20 20 18 18 20 20 20 21 21 21 20 20 21 20 18 19 17 19 21 19 18 17 19 19 18 17 17 16 16 16 16 15 14 15 16 16 17 17 16 17 18 19 19 19 19 19 19 19 19 19 18 18 17 17 17 17 16 15 13 13 13
2 4 7 6 4 4 7 10 8 9 10 9 7 7 6 3 2 3 5 4 3 1 3 15 20 19 20 19 20 21 21 22 22 22 21 21 21 20 19 19 20 20 20 21 21 21 19 20 21 20 19 19 18 19 20 19 17 17 20 20 18 17 16 16 16 17 17 16 16 15 16 16 17 17 16 18 19 19 19 18 17 17 16 15 14 14 14 13 12 11 11 11 10 9 8 8 10
2 2 6 9 9 6 7 12 12 9 9 9 7 7 5 4 4 3 3 2 3 2 1 14 19 18 22 20 19 19 18 18 20 23 22 22 22 20 21 20 20 21 20 21 22 21 19 19 20 19 20 19 18 18 20 20 16 17 20 20 19 17 15 15 15 17 17 17 17 15 15 15 16 16 16 18 18 16 15 13 13 12 12 13 12 11 10 10 8 6 6 6 6 5 4 6 8
5 2 5 6 11 9 8 13 14 11 9 8 7 8 5 5 6 3 2 0 2 2 1 14 20 19 21 17 16 18 18 18 21 25 24 24 23 21 21 20 21 21 20 21 23 22 18 18 19 19 20 19 18 18 19 20 17 17 20 19 19 17 16 16 16 17 17 17 16 15 14 13 13 15 15 15 15 14 11 9 9 9 9 10 11 11 9 9 7 5 4 3 4 5 6 9 11
5 5 6 4 6 11 12 13 14 13 8 8 10 9 4 4 5 3 3 2 3 3 2 14 19 17 17 14 15 16 15 17 21 25 25 25 26 25 23 21 22 21 21 23 24 23 19 18 18 18 19 19 19 18 18 20 18 18 20 19 18 17 17 17 18 18 17 17 16 14 13 12 12 13 13 13 14 14 11 8 7 7 8 9 10 10 9 9 8 6 3 2 4 9 11 13 13
6 6 6 6 3 9 12 14 14 12 7 9 12 8 4 4 4 3 2 3 4 4 6 13 18 16 15 13 14 14 13 15 19 22 23 26 28 27 25 24 22 21 22 24 24 23 20 18 17 18 19 19 19 19 19 20 18 18 19 18 17 17 17 18 19 18 18 18 17 15 14 12 12 12 11 11 13 14 13 10 8 8 8 10 11 10 9 8 7 5 3 3 6 11 12 12 13
9 6 8 8 8 9 10 14 15 11 8 9 12 8 6 5 3 1 1 3 4 7 11 14 17 16 14 14 13 13 13 15 19 20 21 24 25 26 27 25 22 21 24 25 25 24 20 19 18 18 19 19 20 19 19 19 18 18 18 18 17 16 18 19 19 17 17 17 16 15 15 14 13 13 10 10 12 13 13 12 10 10 10 10 10 10 9 7 5 5 5 6 8 9 10 11 12
13 11 11 9 10 9 10 15 14 10 7 7 12 9 5 3 1 2 1 2 4 6 11 13 14 14 13 14 12 11 11 16 19 18 19 21 21 25 27 25 23 23 25 25 25 24 21 20 19 19 18 18 19 19 19 19 19 18 18 19 18 17 19 20 18 16 15 14 13 13 15 15 15 14 12 11 12 12 12 11 11 12 11 11 11 10 8 7 6 6 6 7 7 7 7 9 11
12 13 7 1 9 9 9 13 13 9 6 8 11 8 3 1 4 5 5 4 3 2 7 12 12 12 12 13 11 8 10 16 17 16 19 21 23 27 27 26 25 24 25 25 24 24 22 21 20 19 17 16 16 18 18 18 18 19 19 20 19 19 20 20 18 16 15 13 13 13 14 15 16 15 13 13 13 12 12 11 10 11 11 11 10 9 7 6 7 6 7 7 6 7 7 7 9
8 11 5 4 8 4 1 5 11 9 4 7 6 4 3 1 4 3 2 4 6 2 6 11 11 10 11 11 9 8 10 14 14 15 20 22 26 28 27 27 25 25 28 26 25 25 22 20 19 18 16 14 15 16 18 18 18 19 20 20 20 21 21 20 18 16 15 14 14 14 14 14 16 14 12 13 13 13 13 11 11 10 10 10 8 8 8 8 7 6 6 5 6 7 7 7 8
4 6 6 5 5 1 6 3 8 8 1 3 2 2 4 3 3 3 4 6 7 2 8 10 11 10 10 10 9 8 10 14 13 17 22 23 26 28 28 27 25 28 30 26 26 26 22 20 19 17 15 14 14 15 17 17 17 19 20 20 20 21 21 20 18 16 15 15 15 15 15 16 16 14 12 13 13 13 13 12 12 10 10 8 8 9 9 8 7 6 6 6 6 6 7 7 8
3 3 3 4 5 3 2 4 4 6 3 4 1 3 2 2 4 3 5 4 5 2 8 11 12 11 12 10 10 8 9 14 15 21 22 21 25 27 28 27 27 31 29 26 27 27 23 21 19 18 16 14 14 14 16 17 17 19 19 19 20 21 21 19 17 16 15 15 15 15 17 18 17 16 15 14 14 14 14 14 13 12 11 10 10 10 8 7 7 6 6 7 7 7 7 8 8
4 3 3 6 6 3 4 4 5 8 8 2 2 3 2 1 5 5 4 5 5 1 5 8 11 11 12 10 9 9 8 10 13 21 21 19 23 27 27 28 30 29 26 26 29 28 25 22 20 20 18 16 15 14 14 16 17 17 16 16 19 21 20 19 17 17 16 17 17 16 17 17 16 16 16 15 15 15 16 15 14 13 12 11 10 9 7 8 8 6 6 7 7 6 5 6 6
4 4 4 9 10 6 5 3 5 9 9 5 2 3 4 4 6 7 5 5 6 4 4 1 4 7 10 10 9 8 9 7 8 18 20 19 21 25 28 29 30 27 24 27 30 27 25 23 22 22 20 19 18 17 15 15 15 16 16 15 17 18 18 19 18 17 17 17 17 17 17 16 16 15 14 13 13 15 15 14 13 12 11 10 9 9 8 7 7 6 6 6 5 4 4 5 6
6 7 5 7 12 10 9 8 10 13 10 8 6 4 6 9 7 7 7 5 5 3 3 1 3 2 5 9 10 9 9 7 8 18 21 20 21 24 27 29 30 27 25 28 29 26 25 25 24 23 22 20 18 18 18 17 16 16 16 16 17 17 18 19 19 19 18 16 16 17 16 16 16 14 13 13 12 13 13 13 11 11 11 9 8 9 9 8 8 7 6 5 3 4 5 5 6
7 5 4 6 9 10 12 11 13 15 10 8 9 7 9 11 8 7 8 6 5 3 1 1 3 2 1 4 7 10 9 7 12 20 22 21 21 23 27 28 29 28 26 28 29 26 25 26 26 24 23 22 20 19 19 19 18 17 16 16 16 18 19 18 18 21 19 15 15 17 17 17 16 14 14 13 13 12 12 11 11 11 11 9 9 10 10 8 7 7 6 5 3 5 6 4 3
12 8 6 7 5 9 13 13 14 15 9 5 9 10 10 10 9 7 8 7 5 6 4 1 3 3 2 3 4 11 10 7 14 22 22 22 22 24 27 27 28 28 27 28 29 26 25 27 28 26 24 23 22 20 20 20 19 18 17 15 15 17 20 19 18 20 18 15 16 17 17 17 17 15 14 14 14 12 11 11 10 11 10 9 9 10 9 8 7 7 6 5 4 5 5 3 3
11 8 7 9 2 10 16 17 18 15 8 6 10 11 10 9 9 8 9 9 7 7 7 5 4 4 5 4 3 9 10 8 12 18 21 22 22 25 26 26 27 29 28 29 29 25 25 28 29 27 26 24 23 22 22 21 19 19 18 15 15 16 19 20 19 19 17 15 16 17 16 17 18 16 14 14 13 12 12 12 10 11 10 9 9 9 9 9 6 6 6 5 4 5 4 2 4
8 6 6 6 3 12 13 16 19 13 6 8 12 10 8 8 9 9 10 9 8 7 7 7 7 6 7 5 3 5 9 10 9 12 18 21 22 26 26 25 27 29 29 29 28 25 26 29 27 28 27 26 25 22 21 20 18 18 16 14 15 16 18 19 19 18 16 15 15 16 15 16 17 16 14 13 13 13 12 12 10 11 11 10 10 10 10 9 6 6 5 5 4 3 3 2 3
6 6 5 3 7 12 8 11 17 14 9 13 13 8 5 6 7 8 10 9 7 7 6 3 5 6 7 6 2 3 7 11 11 11 15 19 22 25 25 25 27 29 27 28 29 25 27 28 26 28 27 26 26 22 21 19 17 18 16 14 15 15 16 17 18 17 16 17 15 15 15 15 16 16 14 14 14 13 12 11 10 10 11 10 10 10 10 9 7 6 5 5 4 2 2 2 2
6 8 6 5 6 10 10 10 13 11 11 15 15 7 3 6 8 8 8 8 7 8 7 4 4 4 4 5 3 4 5 9 13 11 12 16 20 23 24 25 28 29 26 28 29 25 26 28 26 27 25 24 25 23 21 19 19 19 17 16 17 16 16 17 18 17 16 18 17 16 15 14 15 14 13 14 14 13 11 12 11 10 10 9 8 9 9 9 8 7 6 5 4 3 3 4 3
5 7 9 10 5 6 12 13 11 7 6 14 14 6 3 6 9 9 8 8 7 8 9 8 7 4 3 4 5 6 5 6 11 12 12 14 19 23 24 25 28 28 26 28 29 25 26 28 26 26 25 24 25 23 21 20 20 19 18 20 20 18 19 20 21 19 17 18 18 17 16 15 15 14 13 13 13 13 12 11 11 10 10 9 9 9 9 9 8 7 7 5 4 5 4 4 5
3 5 9 11 6 5 13 15 12 5 6 13 12 5 4 6 7 9 11 11 10 10 10 10 8 6 5 5 6 7 5 6 9 12 13 14 20 23 22 24 27 27 27 27 27 26 27 28 26 26 26 24 25 23 21 22 21 18 18 21 20 20 22 21 21 21 19 18 17 15 16 16 15 14 14 13 12 13 12 11 11 11 11 10 9 8 8 8 7 7 7 6 6 5 5 5 5
3 7 7 8 8 4 7 8 7 5 7 11 11 5 6 6 8 11 13 13 13 12 11 11 10 9 9 6 6 8 6 6 8 11 12 14 21 24 22 24 27 28 28 27 27 26 29 30 26 26 26 24 24 23 22 24 22 19 19 19 18 19 21 20 19 21 19 18 17 15 15 16 15 15 13 13 13 12 13 13 12 12 11 9 8 8 8 7 7 7 7 7 7 6 5 5 6
5 8 5 5 8 5 7 6 2 1 5 6 9 6 7 3 7 11 12 12 13 13 13 12 12 11 11 8 7 8 7 6 7 9 10 14 21 25 24 25 26 29 29 28 27 28 30 32 27 26 26 25 24 23 23 25 23 21 19 18 18 18 18 18 17 20 20 18 19 17 16 16 16 16 14 13 14 13 13 13 12 12 11 10 8 7 8 8 8 8 8 8 8 7 5 5 6
4 9 8 6 6 6 8 5 1 1 1 5 12 9 6 3 6 10 10 11 12 13 12 12 13 13 12 10 8 8 7 6 6 7 9 15 23 27 26 26 26 29 31 28 28 29 31 32 28 26 26 25 25 23 23 25 24 23 20 17 19 18 17 17 15 19 20 18 20 19 17 17 16 17 15 14 14 13 13 13 12 12 11 11 9 8 9 10 10 8 7 8 8 8 7 6 6
4 7 7 6 6 4 5 3 5 1 3 4 12 12 8 5 6 8 9 12 13 13 11 10 12 12 11 10 10 10 8 6 6 6 7 13 22 28 28 27 26 29 32 29 28 30 32 32 29 27 27 25 26 24 23 25 25 25 22 18 20 19 18 18 15 17 19 18 20 20 19 18 16 17 16 14 14 13 13 13 13 11 10 11 10 8 9 10 10 8 7 8 8 8 8 6 5
4 3 4 4 5 4 2 1 4 1 3 4 6 7 8 3 6 8 7 10 13 13 13 13 14 12 10 9 9 10 9 8 7 6 7 10 16 24 27 27 24 27 32 30 29 31 31 32 30 27 26 25 26 26 24 24 25 26 23 19 19 18 19 20 16 16 19 19 19 19 19 18 16 16 16 15 15 14 14 13 12 11 11 12 11 10 11 10 10 9 7 8 8 8 8 7 7
2 1 3 3 2 3 1 1 2 2 4 5 6 0 4 1 6 12 12 13 14 13 13 14 14 13 11 10 9 9 8 9 7 5 7 6 8 16 23 26 23 24 32 31 29 32 31 32 31 29 28 25 26 28 25 24 24 25 24 20 19 18 18 21 18 15 19 19 18 18 18 19 17 16 17 17 16 15 15 14 14 13 12 12 12 11 11 10 11 11 9 8 8 8 7 7 7
3 2 2 4 1 2 2 1 2 1 4 7 7 2 4 2 6 11 13 14 15 14 13 13 13 12 11 10 10 10 9 9 8 5 7 6 7 12 18 25 24 20 29 32 30 33 32 32 32 30 29 26 26 29 27 25 24 24 24 21 20 20 19 20 19 16 18 19 17 17 16 17 17 17 18 17 15 16 16 15 15 14 13 13 12 11 10 10 11 11 11 9 7 8 7 5 6
5 3 1 4 3 2 3 2 2 1 4 7 5 1 3 2 4 9 12 11 11 12 11 10 10 9 10 10 10 11 10 9 9 8 8 6 9 13 14 21 23 19 23 29 32 34 34 33 33 31 30 27 27 29 28 27 25 24 24 22 20 21 20 19 19 18 18 19 18 17 16 16 16 16 18 16 15 18 18 15 16 15 14 14 12 11 10 10 10 10 10 9 7 7 7 6 5
4 4 2 3 3 3 2 3 5 5 3 2 1 2 3 3 2 3 9 11 9 10 10 9 9 9 9 9 9 9 9 9 10 9 9 8 10 16 14 16 21 18 16 22 30 35 34 34 34 32 31 28 26 29 28 27 26 24 24 23 21 21 21 19 19 19 18 19 19 18 16 16 16 15 17 15 15 19 19 16 16 15 15 14 13 12 12 11 11 11 9 8 8 7 7 7 5
3 4 4 3 3 4 1 3 5 5 3 1 3 5 4 5 4 5 4 8 6 7 10 7 7 8 9 7 7 8 7 7 8 6 7 7 9 14 16 17 21 21 15 17 27 34 35 35 35 32 31 29 27 28 28 27 26 25 24 24 22 21 22 20 20 20 19 18 18 18 17 16 16 15 16 15 14 17 18 16 16 16 15 15 14 14 13 12 11 11 11 9 9 8 7 7 6
2 3 3 3 3 3 2 1 2 2 3 2 7 12 8 5 3 1 4 8 6 5 8 8 7 8 7 4 3 5 4 4 6 5 5 8 10 13 15 16 19 21 19 19 25 32 35 36 36 34 32 31 28 28 28 26 26 25 25 25 23 22 23 21 20 20 19 18 18 18 17 17 17 15 15 15 14 15 16 15 15 16 16 15 14 14 14 13 12 12 11 9 9 9 8 8 7
1 1 2 1 3 2 1 3 1 2 3 1 5 10 6 3 4 6 7 8 6 6 6 7 10 9 7 5 4 4 4 5 5 4 4 3 4 6 8 10 13 17 18 19 23 29 33 34 34 33 33 33 30 28 27 26 26 26 25 26 25 24 23 22 20 19 19 19 19 18 18 17 17 15 15 16 17 16 16 16 15 16 17 16 14 14 15 14 13 12 12 11 10 10 9 9 8
3 1 3 2 3 2 1 3 2 2 2 2 3 2 1 2 0 6 11 10 10 10 7 7 9 10 8 7 6 6 6 5 3 3 4 3 3 3 3 8 15 19 19 20 23 27 30 30 31 30 29 30 29 27 26 25 25 25 24 25 26 24 24 23 21 20 20 20 20 20 19 18 18 17 16 17 19 19 19 18 16 16 17 17 15 15 15 15 15 14 13 12 11 10 11 10 10
2 1 2 3 1 0 1 1 2 3 2 4 4 1 2 2 4 1 7 10 10 10 10 10 10 10 9 8 8 7 7 5 3 2 3 4 6 8 10 11 14 16 16 17 19 22 24 24 26 28 28 26 25 25 25 24 24 24 24 25 26 26 24 23 22 21 22 21 21 21 20 20 19 19 18 18 18 20 20 20 19 18 17 17 16 16 16 15 15 15 15 13 12 12 12 12 11
1 3 1 4 3 1 2 3 4 4 2 5 7 3 1 2 1 1 1 6 8 8 10 12 11 12 12 11 10 9 8 8 7 5 3 3 4 5 7 10 12 12 10 9 9 10 8 6 6 7 10 14 18 21 23 22 22 23 23 23 25 27 25 24 24 23 22 23 22 22 21 21 21 20 21 20 19 19 20 19 20 20 19 18 18 17 17 16 16 16 16 15 15 14 14 14 13
Wind_Direction
163 174 171 171 166 164 210 192 24 284 217 10 213 153 113 260 19 353 208 171 130 162 162 177 192 151 116 112 110 72 41 113 131 122 129 138 149 150 152 151 147 146 144 140 141 143 143 143 141 135 127 124 123 123 124 120 116 111 104 103 103 102 101 102 101 98 97 99 101 101 102 101 100 102 104 106 107 107 106 107 106 105 107 113 117 117 117 116 112 109 107 105 105 106 107 108 107
173 173 171 179 186 200 226 205 273 339 251 332 263 132 112 49 103 230 255 203 118 129 144 143 133 97 95 88 87 67 37 32 96 94 99 133 143 147 154 150 143 145 142 140 141 142 145 144 139 132 125 123 125 127 126 123 118 110 105 104 102 101 102 104 102 100 98 98 101 105 106 104 101 102 104 107 109 109 108 109 109 108 111 115 117 118 118 116 113 111 110 108 108 109 110 110 109
173 176 187 190 208 227 251 4 176 287 298 329 309 93 101 150 178 192 263 243 133 125 136 101 85 78 83 68 62 77 68 47 94 97 112 134 140 146 151 145 141 143 139 138 139 141 142 141 136 129 127 128 128 129 129 125 116 108 108 106 104 104 104 106 104 102 99 98 101 106 106 103 101 103 103 105 108 110 110 109 110 110 113 118 117 117 114 111 111 111 110 109 111 113 112 111 110
178 205 223 207 210 239 236 51 193 250 313 334 338 114 147 188 181 165 241 242 125 120 114 90 82 79 87 88 89 88 94 75 94 105 122 140 142 145 146 141 140 138 136 137 138 140 138 138 134 130 132 131 129 132 131 123 114 111 111 107 106 106 105 104 103 101 99 99 99 103 105 101 100 101 101 102 105 108 110 109 110 112 113 114 114 113 110 108 110 111 110 109 113 113 111 110 110
200 219 238 243 238 64 88 334 206 236 211 182 145 162 196 207 172 165 238 255 99 111 111 106 102 93 86 92 105 97 110 104 101 111 120 137 142 143 143 140 139 136 138 137 138 139 136 136 133 133 135 131 133 135 129 119 115 115 111 107 104 104 105 104 102 102 100 98 97 100 102 100 98 98 98 102 105 107 111 112 113 115 115 114 113 112 111 111 111 111 112 110 110 110 109 107 106
216 242 251 236 104 90 211 296 235 247 234 156 201 184 174 214 182 166 148 50 37 81 97 100 99 97 82 79 90 103 125 121 117 122 126 136 142 141 141 140 138 137 140 141 141 137 135 135 134 135 134 134 137 133 126 119 117 116 110 105 104 103 105 105 104 103 100 99 98 99 101 101 99 98 98 102 107 109 112 113 114 116 116 116 114 113 112 112 111 112 112 110 109 110 108 105 103
201 258 289 104 77 65 223 270 244 247 304 89 256 67 104 243 205 147 106 80 8 86 92 94 103 100 87 100 99 102 117 121 126 131 133 138 141 141 141 140 137 137 142 144 141 137 137 137 136 135 135 138 136 130 126 121 119 113 107 104 104 104 104 105 106 104 102 101 100 99 99 101 100 99 99 103 107 109 110 111 114 116 115 114 113 114 114 113 112 114 114 112 111 109 108 106 104
202 186 350 57 71 288 288 270 249 181 243 10 5 35 51 316 349 60 91 99 138 107 98 98 106 97 92 100 100 111 117 119 125 130 135 139 141 142 141 138 135 137 144 145 140 139 140 139 137 135 138 139 133 130 127 122 118 111 107 105 106 106 106 107 107 106 105 102 100 99 99 101 100 100 100 104 106 107 109 110 113 114 114 114 114 115 116 115 114 116 115 114 112 110 109 107 104
203 56 286 69 163 260 268 265 235 195 137 67 47 55 38 354 9 50 87 138 116 106 99 103 105 99 102 100 103 117 114 119 126 130 136 139 140 140 138 137 136 139 143 143 141 142 142 141 138 137 139 137 132 130 127 123 118 113 110 109 110 110 109 109 108 106 104 103 101 100 100 100 99 99 100 103 105 107 110 110 111 111 112 113 114 115 116 117 117 117 116 115 113 112 110 106 104
69 24 51 60 255 249 267 272 127 312 60 85 85 66 31 349 340 65 140 205 111 95 96 100 98 102 110 106 108 116 117 126 128 131 137 137 138 138 134 135 138 142 144 144 143 143 141 140 138 138 139 135 133 131 127 124 119 115 112 112 113 112 111 109 108 107 106 104 104 104 101 100 99 99 99 100 102 107 110 111 111 109 110 112 113 115 117 118 118 118 117 117 115 115 113 108 105
70 28 75 320 282 292 286 56 103 31 71 100 87 59 34 331 317 52 23 284 91 99 107 107 101 104 109 102 103 119 125 131 131 134 137 135 138 136 132 135 143 146 144 144 144 143 141 140 138 139 139 136 135 131 128 126 121 116 114 114 113 113 113 111 110 109 108 106 106 104 102 100 99 99 99 100 100 105 109 111 113 112 112 113 115 117 117 117 119 120 120 119 119 119 117 112 109
82 172 74 323 305 305 296 90 110 101 104 107 108 131 157 321 304 175 179 255 110 113 113 108 112 111 109 102 113 126 129 133 133 136 137 137 136 132 132 138 145 146 144 144 143 142 140 140 139 139 139 137 134 131 130 127 123 118 115 114 113 115 115 115 114 112 109 107 107 105 104 102 99 99 99 101 100 103 107 110 113 114 114 113 114 116 118 120 122 124 124 124 123 122 120 116 112
96 179 110 314 293 272 323 71 117 114 102 93 135 163 129 130 282 260 189 81 92 106 107 109 121 116 109 113 129 132 132 132 129 131 133 133 132 130 133 137 142 144 144 143 142 142 142 141 140 140 140 136 133 130 130 128 124 120 116 116 116 117 118 117 116 114 111 108 106 104 103 101 100 100 100 101 101 101 106 111 115 117 117 116 115 117 119 123 126 128 128 128 127 126 123 118 114
137 182 116 232 287 293 27 80 117 105 109 147 160 137 130 203 241 281 340 74 56 109 114 117 123 111 114 127 135 137 134 134 128 128 130 127 129 132 134 137 140 142 144 143 143 142 142 142 141 143 143 137 134 133 131 128 125 121 117 118 119 119 120 119 117 115 112 109 106 103 102 101 100 99 100 101 101 102 105 110 116 118 119 119 120 120 122 125 130 132 132 131 131 130 126 119 115
134 194 137 263 299 345 66 125 137 114 141 182 172 136 132 257 231 289 1 83 68 149 113 120 130 116 135 145 141 141 137 139 135 133 134 130 131 132 133 137 138 141 143 144 142 140 143 144 145 147 145 141 140 138 131 128 126 122 120 121 121 122 123 121 119 116 113 110 106 103 101 100 99 98 100 100 101 103 104 106 110 114 116 118 120 121 123 126 131 132 130 130 131 130 126 121 117
134 198 74 342 293 295 199 160 152 134 165 184 155 138 117 20 277 339 10 84 41 104 105 135 145 127 141 142 134 135 135 139 139 134 132 131 131 130 133 136 137 141 143 143 141 143 148 149 151 149 145 144 144 140 133 129 128 125 123 123 124 124 124 123 121 118 114 112 109 107 104 101 99 99 100 100 102 104 104 105 108 111 114 118 121 122 125 127 129 127 125 127 129 128 126 124 119
141 90 8 320 290 284 204 166 179 133 146 165 140 146 115 101 257 324 308 238 145 84 75 118 130 129 135 133 133 133 133 138 137 130 127 130 132 132 136 137 138 143 145 146 145 148 152 153 152 148 146 149 149 144 136 132 132 131 126 124 126 126 126 125 123 122 119 116 115 113 109 105 101 99 100 102 104 104 106 108 110 112 115 118 121 123 125 126 125 122 122 125 127 127 128 128 122
117 59 12 287 283 245 192 166 164 129 143 151 140 171 134 128 174 230 277 172 116 90 93 121 126 127 128 132 133 130 134 138 134 129 128 132 132 134 138 140 143 147 150 149 149 152 155 154 151 149 152 152 152 146 138 136 138 136 133 131 130 129 129 128 127 127 125 121 120 118 114 109 106 102 102 105 105 105 107 110 113 114 117 120 122 124 124 124 124 122 122 123 124 127 130 131 127
102 67 48 277 270 182 169 158 154 144 142 131 134 184 147 136 165 196 170 118 126 108 125 139 123 121 127 134 134 132 139 137 131 131 133 135 134 135 139 141 144 146 148 145 147 155 156 153 152 155 156 153 153 146 139 139 140 139 139 137 133 133 134 132 130 130 127 122 120 119 116 113 110 105 104 106 107 108 109 110 112 114 118 120 122 123 122 122 123 124 123 123 123 125 128 130 129
117 112 31 271 260 224 144 155 166 148 133 128 137 174 124 129 163 188 136 114 121 118 133 138 127 130 137 137 136 139 142 136 133 137 138 139 136 137 140 141 143 145 146 144 148 155 156 154 153 158 158 154 155 147 142 142 142 143 142 139 137 137 137 135 132 130 127 122 121 119 118 116 112 109 110 112 113 113 112 113 113 116 119 120 122 123 123 123 124 126 127 126 127 127 128 130 131
137 146 179 240 266 241 162 162 169 142 132 134 136 133 117 130 165 153 124 103 104 138 144 140 135 139 141 138 141 141 137 133 137 140 140 140 136 138 141 141 144 146 145 147 152 154 157 158 156 160 162 158 157 152 147 145 147 147 144 141 140 140 138 137 136 134 130 124 123 121 119 118 116 116 116 116 118 119 119 118 118 120 121 121 123 126 127 128 129 132 134 136 138 137 137 137 135
160 183 185 198 242 249 186 171 153 138 135 132 133 131 129 143 150 149 131 123 170 163 142 142 138 141 142 142 144 138 135 138 139 140 143 142 140 142 143 144 146 148 148 152 157 156 160 165 161 163 165 160 159 156 148 143 148 148 145 144 144 144 140 140 141 139 134 127 124 124 122 121 119 118 119 120 120 121 121 121 122 123 124 125 127 129 131 131 132 138 145 150 152 152 153 153 149
170 208 201 196 198 216 189 163 143 141 143 134 137 126 127 140 133 151 143 134 147 99 132 145 138 140 143 144 145 139 141 147 142 143 148 145 144 145 145 148 149 150 153 157 161 159 163 170 166 162 163 160 159 156 147 143 148 148 146 147 148 147 142 142 145 141 136 130 126 127 127 127 125 124 126 127 124 123 123 126 126 126 127 129 130 133 137 135 137 150 160 165 175 186 192 180 171
162 224 253 217 194 199 178 155 142 146 143 130 130 121 131 143 132 148 146 90 123 101 159 143 137 140 144 147 146 140 146 152 147 149 152 148 145 146 147 148 151 153 154 160 165 163 162 169 165 161 163 162 159 156 148 146 152 152 150 152 152 148 145 145 144 140 137 132 130 136 136 133 132 133 137 136 132 131 129 130 128 127 130 134 134 136 142 143 152 174 179 190 203 184 149 147 156
173 218 247 258 211 188 165 153 146 141 131 127 127 125 133 119 122 151 167 176 137 118 146 140 138 142 146 149 144 141 150 152 149 154 154 149 146 148 150 150 154 157 157 161 167 166 163 166 164 162 165 163 161 161 153 150 156 158 155 155 155 150 149 149 147 145 143 138 140 148 146 144 144 142 144 143 140 137 136 139 137 133 134 138 138 137 142 145 151 163 181 227 191 157 138 138 152
193 211 243 260 184 162 162 154 145 134 133 135 124 124 132 108 109 119 154 172 146 152 168 150 143 147 151 149 145 145 154 152 152 158 151 147 151 153 151 152 159 160 159 164 166 167 165 166 170 167 166 165 163 163 158 157 161 161 158 157 155 151 153 152 151 152 151 146 149 153 150 154 155 149 150 151 150 146 148 156 154 141 137 140 139 137 139 140 140 132 132 143 143 154 155 151 154
168 181 244 239 127 138 176 151 139 135 142 137 123 125 132 129 139 129 167 183 179 167 160 155 147 150 153 147 147 152 157 155 157 159 149 148 154 151 147 151 161 157 155 163 165 167 169 170 176 173 169 166 162 161 159 161 162 159 162 161 155 153 156 154 150 154 154 150 151 152 153 158 157 156 158 157 160 158 157 164 157 140 136 139 139 140 133 122 124 120 127 135 131 149 162 157 153
158 170 222 225 127 150 181 145 141 139 129 121 116 107 99 126 95 23 18 143 174 157 145 154 153 152 152 147 149 159 160 155 159 159 150 153 152 143 143 151 161 155 152 161 164 167 170 171 177 175 170 166 161 159 156 159 162 160 162 164 161 158 157 154 151 152 152 151 154 155 155 158 158 159 157 150 154 157 158 161 152 139 131 132 137 137 124 110 120 128 137 144 139 147 155 154 159
171 176 199 155 112 155 176 145 141 123 112 133 119 93 80 123 58 40 3 40 78 116 151 158 157 155 151 148 152 161 157 154 162 165 155 152 145 141 145 153 161 155 149 156 160 165 168 170 177 175 170 166 162 159 156 155 160 160 159 162 164 161 158 157 154 150 146 144 151 153 151 153 156 157 151 146 147 146 150 153 145 137 131 130 132 129 128 139 141 134 135 141 145 153 162 154 158
194 180 164 93 109 147 240 139 122 92 102 155 127 98 160 138 77 95 9 45 64 27 202 167 157 160 148 146 158 160 152 159 172 164 152 145 140 143 147 153 160 151 146 152 157 162 164 166 173 172 169 165 157 157 155 149 151 153 154 156 158 161 161 159 154 151 147 139 140 146 146 148 156 159 150 144 144 141 142 143 137 132 133 133 134 136 148 157 149 138 138 146 155 154 156 149 150
241 183 164 126 120 111 323 335 98 77 293 203 95 111 163 123 102 100 48 47 51 357 222 173 155 162 148 147 165 159 153 172 172 145 144 143 140 146 149 155 158 146 145 154 156 159 160 159 164 166 166 162 152 152 150 144 144 146 148 151 153 157 158 156 153 153 151 143 138 143 148 151 156 159 152 144 146 146 141 139 139 136 139 146 155 156 153 149 138 140 147 142 144 144 141 139 145
268 196 174 120 116 151 241 260 148 124 199 251 348 111 141 114 124 93 74 73 49 310 220 172 160 162 148 152 167 161 163 178 160 137 145 149 144 149 152 153 150 144 149 159 155 155 157 156 158 161 163 160 153 151 146 141 145 146 144 148 153 154 152 151 152 155 156 152 146 148 154 156 156 156 154 150 152 155 149 145 147 151 157 158 158 157 146 137 125 127 144 137 131 142 147 141 148
248 199 177 121 113 160 185 234 210 158 147 201 302 120 127 139 137 126 127 121 94 285 239 171 166 163 150 154 166 163 168 178 151 139 152 155 148 151 152 147 143 145 155 158 152 152 156 155 156 159 162 163 161 161 152 141 142 147 148 151 153 152 150 151 157 161 163 159 156 156 159 160 159 155 153 155 156 157 155 153 154 159 164 156 150 152 144 138 126 121 133 131 125 133 150 155 163
222 201 197 140 138 170 167 169 193 165 146 151 189 144 132 149 153 148 157 148 135 193 255 179 156 162 152 154 165 163 166 177 144 144 156 157 151 149 148 145 144 150 157 153 150 152 155 155 156 158 160 163 165 167 164 152 147 151 159 163 159 156 157 160 164 166 165 165 165 163 163 162 160 154 152 156 156 156 157 157 155 157 159 152 148 149 145 142 136 131 132 131 131 118 123 151 163
199 180 205 159 152 168 169 163 169 168 157 149 167 170 132 139 154 151 153 153 137 171 249 8 61 94 144 159 167 158 165 178 144 149 157 157 154 148 146 147 148 153 153 150 149 152 155 156 157 158 158 162 164 162 160 158 156 157 162 168 167 164 164 165 168 169 166 169 171 165 163 163 161 157 155 157 154 157 162 160 156 157 157 150 148 148 146 146 142 139 140 144 149 118 119 142 148
248 215 224 196 170 170 166 158 164 165 150 149 163 154 140 145 156 155 144 137 118 125 253 11 89 88 72 182 172 154 167 179 150 154 157 158 159 150 145 146 149 152 151 149 150 153 159 160 158 157 157 161 163 159 157 158 159 162 166 169 168 164 164 166 166 167 168 174 172 165 165 165 163 160 159 157 153 158 165 162 158 159 159 154 153 153 149 143 140 144 148 154 156 128 132 146 129
280 294 286 260 213 164 153 150 168 164 138 167 165 143 153 153 150 159 144 142 144 146 170 178 128 156 196 258 189 157 167 173 155 157 158 159 159 149 146 147 148 151 151 150 152 157 163 161 156 157 160 163 163 162 163 163 162 166 170 172 168 162 165 167 160 160 169 176 172 167 168 168 167 162 158 157 155 158 162 162 161 160 163 164 161 156 148 140 140 148 147 150 156 138 130 125 135
277 290 285 287 281 141 151 158 172 167 136 169 161 144 166 158 149 165 151 157 175 164 175 184 167 178 199 243 222 165 163 167 159 157 159 161 156 149 148 148 148 150 151 152 155 158 160 157 157 160 162 165 166 165 166 167 165 167 171 174 169 160 164 166 161 163 170 176 174 169 169 171 172 167 162 162 161 164 167 167 166 160 159 163 162 156 149 144 148 156 148 148 142 124 110 99 155
267 272 276 295 105 132 155 161 161 159 135 155 155 148 168 155 151 168 163 168 176 172 180 178 169 185 203 214 232 185 166 165 169 162 162 162 155 150 149 149 149 149 150 154 157 157 156 157 159 162 165 168 168 166 168 169 170 170 170 174 170 163 168 169 163 166 172 174 173 170 170 173 176 175 171 166 163 168 172 171 171 166 160 161 160 156 155 153 158 165 159 160 150 131 126 116 166
248 253 269 265 155 143 150 160 160 162 152 151 148 142 155 148 150 170 176 167 153 169 181 161 166 191 207 203 213 218 177 166 174 171 162 160 154 151 151 150 149 150 151 155 159 160 160 161 163 164 167 171 169 168 171 171 170 171 169 172 170 164 172 174 165 166 175 176 171 171 176 178 177 178 175 170 168 172 173 172 178 177 168 168 165 157 157 158 165 169 156 154 160 168 173 140 148
240 241 255 258 194 148 140 163 173 163 148 150 143 127 153 161 163 172 170 157 150 168 174 173 191 199 199 189 196 238 216 172 172 173 164 160 156 153 155 153 151 154 155 157 163 165 164 167 169 167 167 171 171 171 173 171 172 177 177 174 173 166 168 173 169 167 175 177 174 176 182 181 177 176 177 176 173 172 170 171 178 178 173 175 176 165 159 161 172 175 158 151 153 151 152 142 146
246 236 236 255 254 138 151 167 168 148 148 163 151 123 164 172 173 172 155 155 164 166 174 190 198 197 184 184 200 223 240 195 176 172 170 163 155 156 158 155 154 158 159 161 166 168 168 170 172 171 169 173 175 173 173 173 177 184 180 171 169 164 163 170 172 169 175 179 178 183 186 183 179 178 180 179 175 175 175 175 177 176 175 176 175 171 167 167 172 177 178 177 158 148 147 138 142
269 235 220 251 275 162 171 168 156 158 173 178 172 132 135 169 177 175 161 158 163 168 181 190 190 198 197 190 200 207 226 215 181 171 173 165 155 159 161 157 156 160 164 166 168 171 173 171 173 174 174 176 177 174 173 175 180 182 174 168 167 164 163 171 175 173 178 181 182 187 189 185 181 181 183 181 181 181 180 181 183 177 173 177 175 170 173 172 167 171 181 180 166 164 165 142 134
253 244 202 231 264 237 204 187 170 180 160 178 193 138 119 178 173 166 165 156 157 170 181 186 189 200 202 197 197 199 215 219 185 172 177 165 157 163 165 160 160 162 166 169 170 174 175 174 175 175 175 178 177 176 174 177 182 178 171 170 171 170 168 172 179 180 182 185 186 187 188 185 181 185 190 185 187 188 182 179 180 177 175 180 178 171 175 175 171 174 179 177 173 175 170 151 136
246 259 227 221 243 246 249 245 224 164 114 166 204 142 108 164 158 156 164 157 157 169 179 186 188 194 200 201 198 198 219 230 195 180 179 165 159 165 167 163 163 164 168 173 174 174 175 176 177 174 176 179 179 179 178 180 183 177 172 173 174 175 174 176 182 185 185 187 187 184 185 186 184 190 195 189 189 192 186 176 173 180 182 182 185 186 181 172 173 184 185 177 171 165 158 151 147
243 270 288 289 259 229 224 215 138 309 75 172 204 186 127 133 161 159 163 169 169 170 180 187 186 189 194 196 196 198 218 239 212 192 184 169 161 164 167 168 168 167 170 175 175 174 174 176 179 176 177 180 181 182 180 182 184 177 173 175 175 174 176 179 179 181 184 185 183 181 183 187 189 193 195 192 193 191 187 179 177 184 182 183 194 195 183 176 178 189 185 175 167 157 152 150 152
192 249 282 290 282 272 231 163 95 281 279 207 206 188 138 131 181 174 172 181 173 165 176 184 184 187 186 190 192 190 202 221 216 199 182 173 165 163 166 173 174 168 170 174 173 172 173 175 179 179 179 181 183 183 182 184 185 179 178 179 177 175 176 180 178 177 181 180 180 181 183 186 191 192 190 193 195 191 189 185 183 187 181 184 195 189 181 179 181 187 182 177 177 167 163 164 159
166 215 259 263 291 321 276 139 89 175 252 252 230 170 127 132 186 178 174 169 163 164 174 180 186 185 181 190 190 186 192 199 206 194 172 174 170 164 165 175 180 169 168 172 169 169 172 175 178 180 181 184 184 184 184 186 187 183 181 182 181 180 177 180 181 174 173 175 180 184 183 183 190 191 188 194 196 191 192 187 185 194 192 187 189 184 181 182 184 187 180 176 179 173 170 175 173
139 226 243 233 300 22 81 139 128 218 247 261 277 61 96 111 163 164 161 153 158 171 174 176 186 184 176 184 187 185 186 185 194 189 169 171 173 170 167 173 182 172 167 170 166 167 171 173 178 181 182 186 186 186 185 187 190 186 182 182 184 184 178 180 186 177 170 172 175 180 182 183 190 193 191 196 198 193 193 189 189 198 200 191 186 186 186 188 193 189 181 180 179 172 168 170 173
179 233 186 174 163 79 120 120 124 250 277 267 280 4 78 101 130 142 149 152 160 169 172 176 185 185 175 178 183 178 175 179 184 184 178 171 168 174 169 172 181 174 168 169 164 166 171 173 178 181 183 187 187 187 187 187 191 190 186 184 184 185 181 183 189 184 178 178 176 181 187 189 193 195 195 198 198 197 196 193 195 200 199 191 188 192 189 185 191 188 183 185 180 173 169 167 176
196 239 197 170 178 139 151 149 134 212 259 261 269 93 124 167 130 125 133 140 144 151 162 168 173 183 177 175 179 172 169 176 180 183 184 175 161 164 164 171 180 178 171 171 166 167 172 174 178 182 183 186 188 188 189 188 190 193 193 190 187 188 186 185 189 189 188 187 184 187 193 197 199 197 199 202 199 200 200 194 197 199 195 193 192 195 190 181 184 186 183 184 181 178 178 182 194
202 223 246 202 179 146 152 187 185 189 229 270 329 87 113 121 53 63 122 130 132 142 150 153 161 173 174 174 174 167 171 175 176 178 177 176 166 163 164 170 178 185 183 176 171 169 171 173 177 182 184 186 189 189 190 191 190 192 195 195 194 192 190 190 189 189 193 193 190 192 195 199 203 197 199 207 206 205 204 197 196 198 196 198 199 197 195 192 191 190 188 187 187 185 184 196 213
210 207 225 238 193 164 159 227 210 178 168 178 103 100 95 97 54 350 81 105 102 133 135 134 153 156 155 165 164 161 174 171 161 162 162 165 161 163 173 174 176 187 189 173 170 170 171 173 175 179 183 185 189 190 191 193 193 192 195 197 198 198 195 194 192 190 193 196 193 195 198 200 203 200 200 207 206 202 202 200 197 199 201 203 204 200 197 202 203 199 202 200 193 191 191 202 219
168 197 233 265 228 205 130 133 270 188 162 166 137 142 149 136 134 221 104 86 64 88 106 109 122 121 116 121 126 142 154 125 114 115 137 157 160 163 174 172 172 184 182 168 168 169 171 175 176 178 182 184 188 191 192 194 195 195 195 196 199 202 201 200 198 195 194 196 196 199 201 201 202 203 203 205 204 198 198 201 202 202 204 205 207 202 196 205 213 205 205 208 199 199 203 208 220
229 198 286 278 185 231 139 122 279 231 166 134 139 147 147 122 145 156 129 107 104 95 81 95 109 108 105 105 93 85 76 66 80 90 95 124 131 128 146 159 169 178 175 168 170 171 171 173 176 179 183 185 187 189 192 194 196 198 198 198 199 202 203 203 203 202 200 198 199 201 203 204 203 204 205 206 207 205 202 203 205 207 207 207 209 208 202 205 214 209 204 210 208 203 206 211 221
285 277 324 326 147 179 195 164 209 220 173 125 117 111 346 336 278 147 135 132 131 121 108 103 107 110 115 119 106 76 58 44 43 61 59 42 32 61 139 170 174 174 174 173 174 174 172 172 174 177 182 185 186 187 190 193 196 198 200 201 202 202 204 204 204 206 207 204 204 205 205 206 207 205 207 211 212 211 208 207 208 210 212 211 209 212 214 210 213 214 210 212 216 212 212 217 223
250 104 3 307 267 302 289 239 235 217 174 128 115 63 272 261 318 348 129 124 121 121 116 105 98 97 95 93 90 78 61 47 31 67 146 167 176 183 183 170 161 160 164 167 169 172 174 173 174 177 179 182 184 186 190 194 196 198 201 204 205 205 204 204 204 207 209 208 209 211 208 208 212 209 208 215 216 212 211 211 210 211 214 217 215 214 218 218 216 218 217 215 218 225 228 227 226
251 113 162 260 257 246 282 289 278 255 202 134 129 130 168 146 110 300 127 99 99 106 105 99 93 90 86 80 78 75 66 52 34 35 70 87 93 125 130 112 103 99 101 106 96 93 99 99 112 142 160 172 182 186 188 190 193 196 201 206 209 209 208 207 206 208 211 210 209 213 213 211 215 214 211 214 215 213 213 215 216 216 214 218 223 220 218 222 223 224 224 219 219 228 235 232 229